When you browse on this site, cookies collect data to enhance your experience and personalize the content and advertising you see.
Visit our Privacy Policy to learn more. By continuing to use the site, you agree to this use of cookies and data.
EN

Hourly Weather Adamczowice

Today, 9 July, Thursday

Time Temperature Precipitation Wind Pressure Humidity
00:00 +13°C° 0.2 mm 2 mps 744 mmHg 97%
01:00 +13°C° 0 mm 1 mps 744 mmHg 98%
02:00 +13°C° 0 mm 1 mps 744 mmHg 97%
03:00 +13°C° 0 mm 1 mps 744 mmHg 97%
04:00 +13°C° 0 mm 1 mps 744 mmHg 97%
05:00 +14°C° 0 mm 1 mps 744 mmHg 92%
06:00 +15°C° 0 mm 1 mps 744 mmHg 87%
07:00 +16°C° 0 mm 1 mps 745 mmHg 83%
08:00 +18°C° 0.1 mm 1 mps 745 mmHg 76%
09:00 +19°C° 0.1 mm 1 mps 745 mmHg 69%
10:00 +20°C° 0.1 mm 2 mps 745 mmHg 62%
11:00 +20°C° 0 mm 2 mps 745 mmHg 59%
12:00 +21°C° 0 mm 2 mps 745 mmHg 57%
13:00 +23°C° 0 mm 2 mps 745 mmHg 55%
14:00 +23°C° 0 mm 2 mps 744 mmHg 55%
15:00 +23°C° 0 mm 2 mps 744 mmHg 56%
16:00 +23°C° 0 mm 2 mps 744 mmHg 57%
17:00 +21°C° 0 mm 2 mps 743 mmHg 63%
18:00 +20°C° 0 mm 2 mps 743 mmHg 70%
19:00 +19°C° 0 mm 2 mps 743 mmHg 76%
20:00 +19°C° 0 mm 2 mps 743 mmHg 78%
21:00 +18°C° 0 mm 3 mps 743 mmHg 80%
22:00 +18°C° 0 mm 3 mps 743 mmHg 82%
23:00 +18°C° 0 mm 3 mps 743 mmHg 85%

Tomorrow, 10 July, Friday

Time Temperature Precipitation Wind Pressure Humidity
00:00 +17°C° 0 mm 3 mps 743 mmHg 89%
01:00 +16°C° 0 mm 3 mps 743 mmHg 93%
02:00 +16°C° 0 mm 3 mps 742 mmHg 93%
03:00 +16°C° 0 mm 3 mps 742 mmHg 93%
04:00 +16°C° 0 mm 3 mps 742 mmHg 93%
05:00 +18°C° 0 mm 3 mps 742 mmHg 89%
06:00 +19°C° 0 mm 3 mps 742 mmHg 84%
07:00 +21°C° 0 mm 4 mps 742 mmHg 79%
08:00 +22°C° 0 mm 4 mps 742 mmHg 74%
09:00 +25°C° 0 mm 5 mps 742 mmHg 69%
10:00 +26°C° 0 mm 5 mps 742 mmHg 65%
11:00 +27°C° 0.1 mm 5 mps 742 mmHg 61%
12:00 +28°C° 0.1 mm 5 mps 742 mmHg 57%
13:00 +30°C° 0.1 mm 5 mps 741 mmHg 53%
14:00 +30°C° 0 mm 5 mps 741 mmHg 53%
15:00 +30°C° 0 mm 4 mps 741 mmHg 53%
16:00 +30°C° 0 mm 3 mps 741 mmHg 53%
17:00 +29°C° 0 mm 3 mps 741 mmHg 60%
18:00 +27°C° 0 mm 3 mps 741 mmHg 66%
19:00 +26°C° 0 mm 3 mps 741 mmHg 72%
20:00 +25°C° 0 mm 3 mps 741 mmHg 74%
21:00 +24°C° 0 mm 3 mps 741 mmHg 76%
22:00 +21°C° 0 mm 3 mps 741 mmHg 78%
23:00 +21°C° 0.1 mm 2 mps 742 mmHg 81%

Day after tomorrow, 11 July, Saturday

Time Temperature Precipitation Wind Pressure Humidity
00:00 +21°C° 0.1 mm 1 mps 742 mmHg 84%
01:00 +18°C° 0.1 mm 0 mps 742 mmHg 88%
02:00 +20°C° 0 mm 1 mps 742 mmHg 89%
03:00 +20°C° 0 mm 1 mps 742 mmHg 91%
04:00 +18°C° 0 mm 2 mps 742 mmHg 92%
05:00 +19°C° 0.1 mm 2 mps 743 mmHg 90%
06:00 +21°C° 0.1 mm 2 mps 743 mmHg 87%
07:00 +22°C° 0.1 mm 3 mps 743 mmHg 84%
08:00 +21°C° 0 mm 3 mps 743 mmHg 84%
09:00 +21°C° 0 mm 4 mps 744 mmHg 84%
10:00 +21°C° 0 mm 5 mps 744 mmHg 84%
11:00 +20°C° 0.3 mm 6 mps 744 mmHg 85%
12:00 +17°C° 0.3 mm 7 mps 744 mmHg 87%
13:00 +16°C° 0.3 mm 8 mps 744 mmHg 88%
14:00 +15°C° 0.4 mm 7 mps 744 mmHg 89%
15:00 +14°C° 0.4 mm 7 mps 745 mmHg 89%
16:00 +13°C° 0.4 mm 6 mps 745 mmHg 90%
17:00 +13°C° 0.3 mm 6 mps 745 mmHg 90%
18:00 +13°C° 0.3 mm 5 mps 746 mmHg 91%
19:00 +12°C° 0.3 mm 4 mps 746 mmHg 92%
20:00 +12°C° 0 mm 4 mps 747 mmHg 92%
21:00 +12°C° 0 mm 4 mps 747 mmHg 92%
22:00 +12°C° 0 mm 4 mps 747 mmHg 92%
23:00 +12°C° 0 mm 4 mps 747 mmHg 91%

12 July, Sunday

Time Temperature Precipitation Wind Pressure Humidity
00:00 +12°C° 0 mm 4 mps 747 mmHg 90%
01:00 +12°C° 0 mm 4 mps 747 mmHg 90%
02:00 +11°C° 0.4 mm 4 mps 747 mmHg 91%
03:00 +11°C° 0.4 mm 4 mps 746 mmHg 92%
04:00 +11°C° 0.4 mm 4 mps 746 mmHg 93%
05:00 +11°C° 2.3 mm 4 mps 747 mmHg 94%
06:00 +10°C° 2.3 mm 5 mps 747 mmHg 95%
07:00 +10°C° 2.3 mm 5 mps 747 mmHg 96%
08:00 +10°C° 1.9 mm 5 mps 747 mmHg 95%
09:00 +10°C° 1.9 mm 5 mps 747 mmHg 95%
10:00 +12°C° 1.9 mm 4 mps 747 mmHg 94%
11:00 +12°C° 1.7 mm 4 mps 747 mmHg 94%
12:00 +11°C° 1.7 mm 3 mps 747 mmHg 94%
13:00 +12°C° 1.7 mm 2 mps 747 mmHg 94%
14:00 +12°C° 1.9 mm 3 mps 747 mmHg 93%
15:00 +12°C° 1.9 mm 3 mps 747 mmHg 92%
16:00 +12°C° 1.9 mm 3 mps 747 mmHg 90%
17:00 +12°C° 0.3 mm 3 mps 747 mmHg 90%
18:00 +13°C° 0.3 mm 2 mps 747 mmHg 90%
19:00 +13°C° 0.3 mm 1 mps 747 mmHg 90%
20:00 +13°C° 0 mm 1 mps 747 mmHg 91%
21:00 +12°C° 0 mm 2 mps 747 mmHg 92%
22:00 +12°C° 0 mm 2 mps 747 mmHg 93%
23:00 +12°C° 0.1 mm 2 mps 747 mmHg 93%

13 July, Monday

Time Temperature Precipitation Wind Pressure Humidity
00:00 +12°C° 0.1 mm 2 mps 747 mmHg 93%
01:00 +12°C° 0.1 mm 2 mps 747 mmHg 93%
02:00 +12°C° 0.1 mm 2 mps 747 mmHg 93%
03:00 +10°C° 0.1 mm 3 mps 746 mmHg 93%
04:00 +10°C° 0.1 mm 3 mps 746 mmHg 93%
05:00 +11°C° 0.2 mm 3 mps 746 mmHg 91%
06:00 +12°C° 0.2 mm 4 mps 746 mmHg 88%
07:00 +13°C° 0.2 mm 5 mps 746 mmHg 85%
08:00 +14°C° 0.2 mm 5 mps 746 mmHg 80%
09:00 +15°C° 0.2 mm 5 mps 746 mmHg 75%
10:00 +16°C° 0.2 mm 5 mps 746 mmHg 70%
11:00 +17°C° 0.3 mm 5 mps 745 mmHg 69%
12:00 +17°C° 0.3 mm 5 mps 745 mmHg 68%
13:00 +19°C° 0.3 mm 5 mps 745 mmHg 67%
14:00 +19°C° 0.6 mm 4 mps 744 mmHg 68%
15:00 +18°C° 0.6 mm 4 mps 744 mmHg 69%
16:00 +18°C° 0.6 mm 4 mps 744 mmHg 70%
17:00 +17°C° 0.2 mm 3 mps 743 mmHg 74%
18:00 +16°C° 0.2 mm 3 mps 743 mmHg 78%
19:00 +16°C° 0.2 mm 2 mps 743 mmHg 82%
20:00 +15°C° 0.1 mm 2 mps 743 mmHg 85%
21:00 +14°C° 0.1 mm 2 mps 743 mmHg 88%
22:00 +13°C° 0.1 mm 2 mps 743 mmHg 90%
23:00 +12°C° 0 mm 2 mps 743 mmHg 92%

14 July, Tuesday

Time Temperature Precipitation Wind Pressure Humidity
00:00 +12°C° 0 mm 2 mps 743 mmHg 93%
01:00 +11°C° 0 mm 3 mps 743 mmHg 94%
02:00 +11°C° 0 mm 3 mps 743 mmHg 94%
03:00 +10°C° 0 mm 3 mps 743 mmHg 95%
04:00 +10°C° 0 mm 3 mps 743 mmHg 95%
05:00 +11°C° 0 mm 4 mps 743 mmHg 92%
06:00 +13°C° 0 mm 4 mps 743 mmHg 88%
07:00 +14°C° 0 mm 4 mps 743 mmHg 84%
08:00 +15°C° 0.1 mm 5 mps 743 mmHg 78%
09:00 +16°C° 0.1 mm 5 mps 743 mmHg 72%
10:00 +19°C° 0.1 mm 5 mps 743 mmHg 66%
11:00 +19°C° 0.1 mm 5 mps 743 mmHg 63%
12:00 +20°C° 0.1 mm 5 mps 743 mmHg 61%
13:00 +21°C° 0.1 mm 5 mps 743 mmHg 59%
14:00 +21°C° 0.1 mm 5 mps 742 mmHg 59%
15:00 +21°C° 0.1 mm 5 mps 742 mmHg 59%
16:00 +21°C° 0.1 mm 5 mps 742 mmHg 59%
17:00 +20°C° 0 mm 4 mps 742 mmHg 65%
18:00 +18°C° 0 mm 3 mps 742 mmHg 71%
19:00 +17°C° 0 mm 2 mps 742 mmHg 77%
20:00 +16°C° 0 mm 2 mps 742 mmHg 80%
21:00 +15°C° 0 mm 2 mps 743 mmHg 83%
22:00 +14°C° 0 mm 2 mps 743 mmHg 86%
23:00 +13°C° 0 mm 2 mps 743 mmHg 87%
Show more